x

Pt Arena - 19nm North Of Point Arena, Ca (46014) Weather Station

1:20pm - Sun 28th May 2017 All times are PDT. -7 hours from GMT.

  • Wind
    16mph, 20mph gusts
  • Air Temp 53°f
  • Sea Pressure 1020.5mb
  • Pt Arena - 19nm North Of Point Arena, Ca
  • Pt Arena - 19nm North Of Point Arena, Ca

More Historic Weather Station data

Upgrade to MSW Pro to gain access to the past 30 days of data for over 8000 Wavebouys and Weather Stations around the globe.

Join Pro

Comparision Forecast

View Surf forecast
   
Sun 05/28 1:20pm  -   -   -  16 20 mph 1020.5mb 53f
1:10pm  -   -   -  16 18 mph 1020.4mb 53f
1:00pm  -   -   -  16 20 mph 1020.5mb 53f
12:50pm 4.5ft 10s 5s 16 20 mph 1020.5mb 53f
12:40pm 4.5ft  -  5s 16 20 mph 1020.5mb 53f
12:30pm  -   -   -  18 20 mph 1020.4mb 53f
12:20pm  -   -   -  18 22 mph 1020.4mb 53f
12:10pm  -   -   -  18 22 mph 1020.5mb 53f
12:00pm  -   -   -  18 20 mph 1020.5mb 53f
11:50am 4.5ft 11s 6s 16 20 mph 1020.5mb 53f
11:40am 4.5ft  -  6s 16 20 mph 1020.5mb 53f
11:30am  -   -   -  13 18 mph 1020.5mb 53f
11:20am  -   -   -  16 18 mph 1020.5mb 53f
11:10am  -   -   -  13 18 mph 1020.6mb 53f
11:00am  -   -   -  16 18 mph 1020.6mb 53f
10:50am 5ft 9s 6s 13 16 mph 1020.8mb 53f
10:40am  -   -   -  13 18 mph 1020.8mb 53f
10:30am  -   -   -  13 18 mph 1020.8mb 53f
10:20am  -   -   -  13 16 mph 1020.8mb 53f
10:10am  -   -   -  13 18 mph 1020.8mb 53f
10:00am  -   -   -  13 18 mph 1020.9mb 53f
9:50am 4.5ft 9s 6s 13 18 mph 1020.8mb 53f
9:40am 4.5ft  -  6s 16 18 mph 1020.8mb 53f
9:30am  -   -   -  16 18 mph 1020.9mb 53f
9:20am  -   -   -  16 18 mph 1020.9mb 53f
9:10am  -   -   -  18 22 mph 1020.9mb 53f
9:00am  -   -   -  18 20 mph 1020.8mb 53f
8:50am 5ft 11s 6s 18 22 mph 1020.6mb 53f
8:40am 5ft  -  6s 18 22 mph 1020.5mb 53f
8:30am  -   -   -  18 22 mph 1020.5mb 53f
8:20am  -   -   -  18 20 mph 1020.5mb 53f
8:10am  -   -   -  18 22 mph 1020.5mb 53f
8:00am  -   -   -  18 22 mph 1020.4mb 53f
7:50am 5ft 9s 6s 16 20 mph 1020.3mb 53f
7:40am 5ft  -  6s 18 22 mph 1020.4mb 53f
7:30am  -   -   -  18 22 mph 1020.3mb 53f
7:20am  -   -   -  18 20 mph 1020.1mb 53f
7:10am  -   -   -  18 22 mph 1020mb 53f
7:00am  -   -   -  18 20 mph 1020.1mb 53f
6:50am 4.5ft 10s 6s 16 18 mph 1020.1mb 53f
6:40am  -   -   -  16 20 mph 1020.1mb 53f
6:30am  -   -   -  16 20 mph 1020mb 53f
6:20am  -   -   -  16 18 mph 1020mb 53f
6:10am  -   -   -  16 18 mph 1019.9mb 53f
6:00am  -   -   -  16 20 mph 1019.8mb 53f
5:50am 4.5ft 9s 6s 13 18 mph 1019.8mb 53f
5:40am 4.5ft  -  6s 13 18 mph 1019.6mb 53f
5:30am  -   -   -  16 18 mph 1019.6mb 53f
5:20am  -   -   -  16 20 mph 1019.5mb 53f
5:10am  -   -   -  13 18 mph 1019.5mb 53f
5:00am  -   -   -  13 18 mph 1019.5mb 53f
4:50am 4ft 11s 7s 11 13 mph 1019.5mb 53f
4:40am  -   -   -  13 16 mph 1019.5mb 53f
4:30am  -   -   -  13 18 mph 1019.5mb 53f
4:20am  -   -   -  13 18 mph 1019.5mb 53f
4:10am  -   -   -  13 16 mph 1019.6mb 53f
4:00am  -   -   -  13 18 mph 1019.8mb 53f
3:50am 4.5ft 12s 7s 16 18 mph 1019.8mb 53f
3:40am  -   -   -  13 18 mph 1019.8mb 53f
3:30am 4.5ft  -  7s 13 18 mph 1019.8mb 53f
3:20am  -   -   -  13 18 mph 1019.9mb -
3:10am  -   -   -  13 16 mph 1019.9mb 53f
3:00am  -   -   -  13 18 mph 1019.9mb 53f
2:50am 4.5ft 9s 7s 13 16 mph 1020mb 53f
2:40am  -   -   -  13 16 mph 1020mb 53f
2:30am  -   -   -  13 18 mph 1020mb 53f
2:20am  -   -   -  13 16 mph 1020.1mb 53f
2:10am  -   -   -  13 18 mph 1020mb 54f
2:00am  -   -   -  11 16 mph 1020mb 54f
1:50am 4ft 10s 7s 13 16 mph 1020.1mb 54f
1:40am 4ft  -  7s 11 16 mph 1020.3mb 54f
1:30am  -   -   -  11 16 mph 1020.3mb 54f
1:20am  -   -   -  11 13 mph 1020.4mb 54f
1:10am  -   -   -  11 16 mph 1020.5mb 54f
1:00am  -   -   -  11 16 mph 1020.5mb 54f
12:50am 4ft 11s 8s 11 16 mph 1020.5mb 54f
12:40am  -   -   -  11 13 mph 1020.5mb 54f
12:30am  -   -   -  11 13 mph 1020.5mb 54f
12:20am  -   -   -  11 13 mph 1020.5mb 54f
12:10am  -   -   -  9 11 mph 1020.5mb 54f
12:00am  -   -   -  9 13 mph 1020.5mb 54f
Sat 05/27 11:50pm 4.5ft 11s 8s 11 16 mph 1020.5mb 54f
11:40pm 4.5ft  -  8s 11 16 mph 1020.5mb 54f
11:30pm  -   -   -  11 13 mph 1020.5mb 54f
11:20pm  -   -   -  11 13 mph 1020.5mb 54f
11:10pm  -   -   -  11 16 mph 1020.5mb 54f
11:00pm  -   -   -  9 11 mph 1020.5mb 54f
10:50pm 4.5ft 9s 8s 11 13 mph 1020.6mb 54f
10:40pm 4.5ft  -  8s 11 13 mph 1020.5mb 54f
10:30pm  -   -   -  9 13 mph 1020.5mb 54f
10:20pm  -   -   -  9 11 mph 1020.5mb 54f
10:10pm  -   -   -  9 11 mph 1020.5mb 54f
10:00pm  -   -   -  9 11 mph 1020.5mb 54f
9:50pm 4.5ft  -  8s 9 11 mph 1020.5mb 54f
9:40pm 4.5ft 10s 8s  -  mph - -
9:30pm  -   -   -  9 11 mph 1020.3mb 54f
9:20pm  -   -   -  9 11 mph 1020.3mb 54f
9:10pm  -   -   -  9 11 mph 1020.1mb 54f
9:00pm  -   -   -  9 11 mph 1020mb 54f
8:50pm 4.5ft 10s 8s 9 13 mph 1020mb 54f
8:40pm  -   -   -  11 16 mph 1020mb 54f
8:30pm  -   -   -  11 16 mph 1019.9mb 54f
8:20pm  -   -   -  11 13 mph 1019.9mb 54f
8:10pm  -   -   -  11 13 mph 1019.9mb 54f
8:00pm  -   -   -  9 13 mph 1020mb 54f
7:50pm 4.5ft 11s 8s 9 13 mph 1020mb 54f
7:40pm 4.5ft  -  8s 11 13 mph 1020mb 54f
7:30pm  -   -   -  11 13 mph 1020mb 54f
7:20pm  -   -   -  11 13 mph 1020mb 54f
7:10pm  -   -   -  11 13 mph 1020.3mb 54f
7:00pm  -   -   -  11 13 mph 1020.3mb 54f
6:50pm 4.5ft 9s 8s 9 11 mph 1020.3mb 54f
6:40pm  -   -   -  9 11 mph 1020.4mb 55f
6:30pm  -   -   -  9 11 mph 1020.5mb 55f
6:20pm  -   -   -  9 11 mph 1020.5mb 55f
6:10pm  -   -   -  9 11 mph 1020.5mb 55f
6:00pm  -   -   -   -  mph 1020.5mb -
5:50pm  -   -   -  7 9 mph 1020.6mb 55f
5:40pm  -   -   -  7 9 mph 1020.6mb 55f
5:30pm  -   -   -  7 9 mph 1020.8mb 55f
5:20pm  -   -   -  7 9 mph 1020.8mb 55f
5:10pm  -   -   -  7 9 mph 1020.6mb 55f
5:00pm  -   -   -  7 9 mph 1020.6mb 55f
4:50pm 4ft 9s 7s 7 9 mph 1020.8mb 55f
4:40pm 4ft  -  7s 7 9 mph 1020.8mb 55f
4:30pm  -   -   -  9 11 mph 1020.8mb 55f
4:20pm  -   -   -  9 11 mph 1020.8mb 55f
4:10pm  -   -   -  9 11 mph 1020.8mb 55f
4:00pm  -   -   -  7 9 mph 1020.6mb 55f
3:50pm 4ft 9s 8s 7 9 mph 1020.6mb 55f
3:40pm  -   -   -  7 9 mph 1020.6mb 55f
3:30pm  -   -   -  7 9 mph 1020.6mb 55f
3:20pm  -   -   -  7 7 mph 1020.8mb 55f
3:10pm  -   -   -  7 9 mph 1020.8mb 55f
3:00pm  -   -   -  7 9 mph 1020.8mb 55f
2:50pm 4ft 11s 8s 7 9 mph 1020.8mb 55f
2:40pm  -   -   -  7 9 mph 1020.8mb 55f
2:30pm  -   -   -  7 9 mph 1020.8mb 55f
2:20pm  -   -   -  7 9 mph 1020.8mb 55f
2:10pm  -   -   -  4 7 mph 1020.8mb 55f
2:00pm  -   -   -  4 7 mph 1020.8mb 55f
1:50pm 4ft 9s 7s 4 7 mph 1020.8mb 54f
1:40pm 4ft  -  7s 4 7 mph 1020.8mb 54f
1:30pm  -   -   -  4 4 mph 1020.8mb -
1:20pm  -   -   -  4 4 mph 1020.8mb 54f
1:10pm  -   -   -  2 4 mph 1020.9mb 54f
1:00pm  -   -   -  2 4 mph 1021mb 54f
12:50pm 4.5ft 9s 7s 2 4 mph 1021mb 54f
12:40pm  -   -   -  2 4 mph 1020.9mb 54f
12:30pm  -   -   -  2 4 mph 1021mb 54f
12:20pm  -   -   -  2 4 mph 1021mb 54f
12:10pm  -   -   -  2 4 mph 1021mb 54f
12:00pm  -   -   -  2 4 mph 1020.9mb 54f
11:50am 4.5ft 10s 7s 4 4 mph 1021mb 54f
11:40am 4.5ft  -  7s 4 4 mph 1020.8mb 54f
11:30am  -   -   -  2 4 mph 1020.8mb 54f
11:20am  -   -   -  2 4 mph 1020.8mb 54f
11:10am  -   -   -  4 7 mph 1020.8mb 54f
11:00am  -   -   -  4 4 mph 1020.8mb 54f
10:50am 4.5ft 9s 7s 4 7 mph 1020.8mb 54f
10:40am  -   -   -  4 4 mph 1020.6mb 54f
10:30am  -   -   -  4 7 mph 1020.6mb 54f
10:20am  -   -   -  4 7 mph 1020.6mb 54f
10:10am  -   -   -  4 7 mph 1020.5mb 54f
10:00am  -   -   -  4 7 mph 1020.5mb 54f
9:50am 4.5ft 15s 7s 7 9 mph 1020.5mb 54f
9:40am  -   -   -  7 9 mph 1020.4mb 54f
9:30am  -   -   -  7 9 mph 1020.3mb 54f
9:20am  -   -   -  7 9 mph 1020.1mb 54f
9:10am  -   -   -  7 9 mph 1020.1mb 54f
9:00am  -   -   -  7 9 mph 1020mb 54f
8:50am 3.5ft 9s 7s 7 9 mph 1020mb 54f
8:40am  -   -   -  7 7 mph 1020mb 54f
8:30am  -   -   -  7 9 mph 1019.9mb 54f
8:20am  -   -   -  4 7 mph 1019.8mb 54f
8:10am  -   -   -  4 7 mph 1019.6mb 53f
8:00am  -   -   -  4 7 mph 1019.5mb 54f
7:50am 4.5ft 9s 7s 4 9 mph 1019.5mb 53f
7:40am 4.5ft  -  7s 4 9 mph 1019.4mb 53f
7:30am  -   -   -  4 7 mph 1019.4mb 53f
7:20am  -   -   -  4 7 mph 1019.3mb 53f
7:10am  -   -   -  4 7 mph 1019.1mb 53f
7:00am  -   -   -  4 7 mph 1019mb 53f
6:50am 5ft 10s 8s 4 7 mph 1019mb 53f
6:40am 5ft  -  8s 4 7 mph 1019mb 53f
6:30am  -   -   -  4 7 mph 1018.9mb -
6:20am  -   -   -  4 7 mph 1018.8mb 53f
6:10am  -   -   -  4 7 mph 1018.6mb 53f
6:00am  -   -   -  7 11 mph 1018.6mb 53f
5:50am 4.5ft 9s 8s 7 9 mph 1018.5mb 53f
5:40am 4.5ft  -  8s 4 7 mph 1018.5mb 53f
5:30am  -   -   -  7 7 mph 1018.5mb 53f
5:20am  -   -   -  4 7 mph 1018.5mb 53f
5:10am  -   -   -  4 7 mph 1018.5mb 53f
5:00am  -   -   -  4 7 mph 1018.5mb 53f
4:50am 4.5ft 10s 8s 4 7 mph 1018.4mb 53f
4:40am 4.5ft  -  8s 7 7 mph 1018.4mb 53f
4:30am  -   -   -  7 9 mph 1018.4mb 53f
4:20am  -   -   -  7 9 mph 1018.4mb 53f
4:10am  -   -   -  7 9 mph 1018.4mb 53f
4:00am  -   -   -  7 7 mph 1018.4mb 53f
3:50am  -   -   -  7 9 mph 1018.1mb 53f
3:40am  -   -   -  7 9 mph 1018.1mb 53f
3:30am  -   -   -   -  mph 1018.1mb -
3:20am  -   -   -  7 9 mph 1018.1mb 53f
3:10am  -   -   -  7 9 mph 1018mb 53f
3:00am  -   -   -  4 7 mph 1018.1mb 53f
2:50am 4.5ft 10s 7s 4 7 mph 1018mb 53f
2:40am  -   -   -  4 7 mph 1018mb 53f
2:30am  -   -   -  4 7 mph 1018mb 53f
2:20am  -   -   -  4 7 mph 1018mb 53f
2:10am  -   -   -  7 7 mph 1018mb 53f
2:00am  -   -   -  4 7 mph 1017.9mb 53f
1:50am 4.5ft 9s 7s 7 7 mph 1017.9mb 53f
1:40am 4.5ft  -  7s 4 7 mph 1018mb 53f
1:30am  -   -   -  4 7 mph 1018mb 53f
1:20am  -   -   -  4 7 mph 1018mb 53f
1:10am  -   -   -  4 4 mph 1018mb 53f
1:00am  -   -   -  4 4 mph 1018mb 53f
12:50am 5ft 10s 8s 4 4 mph 1018mb 53f
12:40am  -   -   -  2 4 mph 1018.1mb 53f
12:30am  -   -   -  4 4 mph 1018mb 53f
12:20am  -   -   -  2 4 mph 1018mb 53f
12:10am  -   -   -  2 4 mph 1018mb 53f
12:00am  -   -   -  2 4 mph 1018mb 53f
Fri 05/26 11:50pm 5ft 10s 7s 2 4 mph 1018mb 53f
11:40pm 5ft  -  7s  -  2 mph 1018mb 53f
11:30pm  -   -   -  2 4 mph 1018mb 53f
11:20pm  -   -   -  2 2 mph 1018mb 53f
11:10pm  -   -   -  2 4 mph 1018mb 53f
11:00pm  -   -   -  2 2 mph 1018mb 53f
10:50pm 5ft 9s 7s 2 4 mph 1018mb 53f
10:40pm 5ft  -  7s 2 4 mph 1018mb 54f
10:30pm  -   -   -  4 4 mph 1018mb 54f
10:20pm  -   -   -  4 4 mph 1017.9mb 54f
10:10pm  -   -   -  4 4 mph 1017.8mb 54f
10:00pm  -   -   -  2 4 mph 1017.8mb 53f
9:50pm 5ft 11s 7s 2 4 mph 1017.6mb 53f
9:40pm 5ft  -  7s 2 2 mph 1017.6mb 54f
9:30pm  -   -   -  2 4 mph 1017.6mb 54f
9:20pm  -   -   -  2 4 mph 1017.5mb 54f
9:10pm  -   -   -  2 4 mph 1017.5mb 54f
9:00pm  -   -   -  2 4 mph 1017.5mb 54f
8:50pm 5ft 11s 7s 4 4 mph 1017.5mb 54f
8:40pm  -   -   -  4 4 mph 1017.5mb 54f
8:30pm  -   -   -  2 4 mph 1017.5mb 54f
8:20pm  -   -   -  2 4 mph 1017.4mb 54f
8:10pm  -   -   -  2 4 mph 1017.4mb 54f
8:00pm  -   -   -  2 4 mph 1017.3mb 54f
7:50pm 5ft 10s 7s 2 4 mph 1017.3mb 54f
7:40pm  -   -   -  2 4 mph 1017.3mb 54f
7:30pm  -   -   -  2 4 mph 1017.1mb 54f
7:20pm  -   -   -  2 4 mph 1017mb 54f
7:10pm  -   -   -  4 4 mph 1017mb 54f
7:00pm  -   -   -  4 4 mph 1017mb 54f
6:50pm 5.5ft 10s 8s 4 4 mph 1017mb 54f
6:40pm 5.5ft  -  8s 2 4 mph 1017mb 54f
6:30pm  -   -   -  2 2 mph 1017.1mb 54f
6:20pm  -   -   -  2 2 mph 1017mb 54f
6:10pm  -   -   -  2 2 mph 1017.1mb 54f
6:00pm  -   -   -  2 4 mph 1017.1mb 54f
5:50pm 5.5ft 10s 8s 2 4 mph 1017.1mb 54f
5:40pm 5.5ft  -  8s 4 4 mph 1017.1mb 54f
5:30pm  -   -   -  4 4 mph 1017.1mb 54f
5:20pm  -   -   -  4 7 mph 1017.1mb 54f
5:10pm  -   -   -  7 7 mph 1017mb 54f
5:00pm  -   -   -  7 9 mph 1017mb 54f
4:50pm 5ft 9s 7s 7 9 mph 1017mb 54f
4:40pm  -   -   -  7 9 mph 1017mb 54f
4:30pm  -   -   -  7 9 mph 1017mb 54f
4:20pm  -   -   -  7 9 mph 1017mb 54f
4:10pm  -   -   -  7 9 mph 1017mb 54f
4:00pm  -   -   -  7 9 mph 1017mb 54f
3:50pm 5ft 10s 7s 7 9 mph 1017mb 54f
3:40pm 5ft  -  7s 9 11 mph 1017mb 54f
3:30pm  -   -   -  9 11 mph 1017mb 54f
3:20pm  -   -   -  9 11 mph 1017mb 54f
3:10pm  -   -   -  7 11 mph 1017mb 54f
3:00pm  -   -   -  9 11 mph 1016.9mb 54f
2:50pm 5ft 10s 7s 7 9 mph 1016.9mb 54f
2:40pm 5ft  -  7s 7 9 mph 1016.9mb 54f
2:30pm  -   -   -  7 9 mph 1016.9mb 54f
2:20pm  -   -   -  7 9 mph 1016.6mb 54f
2:10pm  -   -   -  7 11 mph 1016.6mb 54f
2:00pm  -   -   -  7 9 mph 1016.5mb 53f
1:50pm 5ft 10s 7s 9 11 mph 1016.5mb 53f
1:40pm  -   -   -  7 9 mph 1016.5mb 53f
1:30pm  -   -   -  9 9 mph 1016.5mb 53f
1:20pm  -   -   -  9 11 mph 1016.5mb 53f
1:10pm  -   -   -  9 11 mph 1016.5mb 53f
1:00pm  -   -   -  9 11 mph 1016.4mb 53f
12:50pm 5.5ft 10s 7s 9 11 mph 1016.1mb 53f
12:40pm 5.5ft  -  7s 9 11 mph 1016mb 53f
12:30pm  -   -   -  9 11 mph 1016mb 53f
12:20pm  -   -   -  9 11 mph 1016mb 53f
12:10pm  -   -   -  9 11 mph 1016mb 53f
12:00pm  -   -   -  9 11 mph 1015.9mb 53f
11:50am 6.5ft 11s 7s 7 9 mph 1015.8mb 53f
11:40am 6.5ft  -  7s 4 9 mph 1015.6mb 53f
11:30am  -   -   -  7 11 mph 1015.5mb 53f
11:20am  -   -   -  7 9 mph 1015.5mb 53f
11:10am  -   -   -  7 9 mph 1015.4mb 53f
11:00am  -   -   -  7 9 mph 1015.3mb 53f
10:30am  -   -   -   -  2 mph 1015mb 53f
10:20am  -   -   -   -  2 mph 1015mb 53f
10:10am  -   -   -   -  2 mph 1014.9mb 53f
10:00am  -   -   -   -  2 mph 1014.9mb 53f
9:50am 6ft 11s 7s 2 4 mph 1014.8mb 53f
9:40am 6ft  -  7s 2 4 mph 1014.8mb 53f
9:30am  -   -   -  2 4 mph 1014.6mb 53f
9:20am  -   -   -   -  4 mph 1014.6mb 53f
9:10am  -   -   -   -  2 mph 1014.6mb 53f
9:00am  -   -   -  2 2 mph 1014.5mb 53f
8:50am 6ft 11s 7s 2 4 mph 1014.5mb 53f
8:40am  -   -   -  2 4 mph 1014.4mb 53f
8:30am  -   -   -  2 4 mph 1014.3mb 53f
8:20am  -   -   -  2 4 mph 1014.3mb 53f
8:10am  -   -   -  2 4 mph 1014mb 53f
8:00am  -   -   -  2 4 mph 1014mb 53f
7:50am 6.5ft 10s 7s  -  4 mph 1013.9mb 53f
7:40am  -   -   -  2 4 mph 1013.9mb 53f
7:30am  -   -   -  2 4 mph 1013.8mb 53f
7:20am  -   -   -  4 7 mph 1013.6mb 53f
7:10am  -   -   -  2 4 mph 1013.5mb 53f
7:00am  -   -   -  2 4 mph 1013.4mb 53f
6:50am 7ft 10s 7s 4 9 mph 1013.3mb 53f
6:40am  -   -   -  4 7 mph 1013.1mb 53f
6:30am  -   -   -  4 7 mph 1013mb 53f
6:20am  -   -   -  4 7 mph 1013mb 53f
6:10am  -   -   -  2 4 mph 1012.9mb 53f
6:00am  -   -   -  2 4 mph 1012.8mb 53f
5:50am 6.5ft 11s 7s 2 4 mph 1012.6mb 53f
5:40am 6.5ft  -  7s 2 4 mph 1012.5mb 53f
5:30am  -   -   -  2 4 mph 1012.5mb 53f
5:20am  -   -   -  2 4 mph 1012.5mb 52f
5:10am  -   -   -  2 4 mph 1012.5mb 52f
5:00am  -   -   -  4 4 mph 1012.4mb 52f
4:50am 7ft 9s 7s 4 7 mph 1012.3mb 52f
4:40am 7ft  -  7s 4 9 mph 1012.3mb 52f
4:30am  -   -   -  4 9 mph 1012.3mb 52f
4:20am  -   -   -  7 9 mph 1012.3mb 52f
4:10am  -   -   -  7 9 mph 1012.3mb 52f
4:00am  -   -   -  7 9 mph 1012.3mb 52f
3:50am 6.5ft 10s 7s 7 9 mph 1012.1mb 52f
3:40am 6.5ft  -  7s 9 11 mph 1012.1mb 52f
3:30am  -   -   -  9 11 mph 1012.1mb 52f
3:20am  -   -   -  7 11 mph 1012.1mb 52f
3:10am  -   -   -  4 7 mph 1012mb 52f
3:00am  -   -   -  4 7 mph 1012mb 52f
2:50am 6ft 9s 7s 2 7 mph 1012mb 53f
2:40am 6ft  -  7s 2 4 mph 1012mb 53f
2:30am  -   -   -  2 4 mph 1012mb 53f
2:20am  -   -   -  2 4 mph 1012mb 53f
2:10am  -   -   -  2 7 mph 1011.9mb 53f
2:00am  -   -   -  4 9 mph 1011.8mb 53f
1:50am 6ft 10s 7s 7 11 mph 1011.5mb 53f
1:40am  -   -   -  9 11 mph 1011.5mb 53f
1:30am  -   -   -  9 13 mph 1011.4mb 53f
1:20am  -   -   -  7 11 mph 1011.4mb 52f
1:10am  -   -   -  9 13 mph 1011.4mb 52f
1:00am  -   -   -  9 13 mph 1011.3mb 52f
12:50am 6ft 10s 7s 9 13 mph 1011.3mb 52f
12:40am 6ft  -  7s 7 11 mph 1011.1mb 52f
12:30am  -   -   -  7 11 mph 1011.1mb 52f
12:20am  -   -   -  9 11 mph 1011.1mb 52f
12:10am  -   -   -  7 11 mph 1011mb 52f
12:00am  -   -   -  7 11 mph 1011mb 52f
Thu 05/25 11:50pm 6.5ft 10s 7s 4 7 mph 1011mb 52f
11:40pm 6.5ft  -  7s 2 4 mph 1011mb 52f
11:30pm  -   -   -  2 4 mph 1011mb 52f
11:20pm  -   -   -  2 4 mph 1011mb 52f
11:10pm  -   -   -  2 4 mph 1011mb 52f
11:00pm  -   -   -  4 7 mph 1011mb 52f
10:50pm 7ft 10s 7s 4 7 mph 1010.9mb 52f
10:40pm  -   -   -  4 7 mph 1010.8mb 52f
10:30pm  -   -   -  4 7 mph 1010.8mb 52f
10:20pm  -   -   -  4 7 mph 1010.6mb 52f
10:10pm  -   -   -  2 4 mph 1010.6mb 52f
10:00pm  -   -   -   -  4 mph 1010.5mb 52f
9:50pm 6ft 10s 7s  -  2 mph 1010.5mb 52f
9:40pm 6ft  -  7s 2 4 mph 1010.5mb 52f
9:30pm  -   -   -  2 7 mph 1010.4mb 52f
9:20pm  -   -   -  2 4 mph 1010.3mb 52f
9:10pm  -   -   -   -  2 mph 1010.1mb 52f
9:00pm  -   -   -   -  2 mph 1010mb 52f
8:50pm 6.5ft 10s 7s  -  2 mph 1009.9mb 52f
8:40pm 6.5ft  -  7s 2 4 mph 1009.8mb 52f
8:30pm  -   -   -  2 4 mph 1009.6mb 52f
8:20pm  -   -   -  2 4 mph 1009.5mb 52f
8:10pm  -   -   -  2 4 mph 1009.5mb 52f
8:00pm  -   -   -  2 4 mph 1009.5mb 53f
7:50pm 6ft 9s 7s  -  2 mph 1009.4mb 53f
7:40pm 6ft  -  7s 2 4 mph 1009.3mb 53f
7:30pm  -   -   -  2 7 mph 1009.3mb 52f
7:20pm  -   -   -  4 9 mph 1009.3mb 52f
7:10pm  -   -   -  7 9 mph 1009.1mb 52f
7:00pm  -   -   -  7 9 mph 1009.1mb 53f
6:50pm 6.5ft 9s 7s 7 9 mph 1009mb 53f
6:40pm  -   -   -  4 7 mph 1009mb 53f
6:30pm  -   -   -  2 4 mph 1009mb 53f
6:20pm  -   -   -  2 7 mph 1009mb 53f
6:10pm  -   -   -  4 7 mph 1009mb 53f
6:00pm  -   -   -  2 4 mph 1009mb 53f
5:50pm 7ft 10s 7s 4 7 mph 1009mb 53f
5:40pm 7ft  -  7s 4 7 mph 1009.3mb 53f
5:30pm  -   -   -  4 9 mph 1009.1mb 53f
5:20pm  -   -   -  4 7 mph 1009.1mb 53f
5:10pm  -   -   -  4 7 mph 1009.3mb 53f
5:00pm  -   -   -  4 7 mph 1009.3mb 52f
4:50pm 8ft 9s 7s 4 7 mph 1009.3mb 52f
4:40pm 8ft  -  7s 4 7 mph 1009.4mb 52f
4:30pm  -   -   -  4 7 mph 1009.4mb 52f
4:20pm  -   -   -  4 7 mph 1009.4mb 52f
4:10pm  -   -   -  4 7 mph 1009.4mb 52f
4:00pm  -   -   -  7 9 mph 1009.5mb 52f
3:50pm 7ft 9s 7s 7 11 mph 1009.5mb 53f
3:40pm  -   -   -  9 11 mph 1009.5mb 53f
3:30pm  -   -   -  9 11 mph 1009.5mb 53f
3:20pm  -   -   -  9 11 mph 1009.5mb 53f
3:10pm  -   -   -  9 11 mph 1009.6mb 53f
3:00pm  -   -   -  11 13 mph 1009.6mb 53f
2:50pm 7.5ft 9s 7s 9 13 mph 1009.8mb 53f
2:40pm  -   -   -  9 11 mph 1009.8mb 53f
2:30pm  -   -   -  9 11 mph 1009.8mb 53f
2:20pm  -   -   -  9 11 mph 1010mb 53f
2:10pm  -   -   -  9 13 mph 1009.9mb 53f
2:00pm  -   -   -  11 13 mph 1009.9mb 53f
1:50pm 8ft 10s 7s 9 11 mph 1010mb 53f
1:40pm 8ft  -  7s 9 11 mph 1009.9mb 53f
1:30pm  -   -   -  7 11 mph 1010mb 53f
1:20pm  -   -   -  7 11 mph 1010mb 52f
1:10pm  -   -   -  9 11 mph 1009.9mb 52f
1:00pm  -   -   -  7 11 mph 1009.9mb 52f
12:50pm 8ft 11s 7s 7 11 mph 1009.9mb 52f
12:40pm 8ft  -  7s 4 7 mph 1010mb 52f
12:30pm  -   -   -  4 7 mph 1009.9mb 52f
12:20pm  -   -   -  2 4 mph 1009.9mb 52f
12:10pm  -   -   -  2 4 mph 1009.8mb 52f
12:00pm  -   -   -  2 4 mph 1009.8mb 52f
11:50am 8ft 10s 7s  -  2 mph 1009.6mb 52f
11:40am 8ft  -  7s  -  2 mph 1009.6mb 52f
11:30am  -   -   -   -  4 mph 1009.5mb 51f
11:20am  -   -   -   -  4 mph 1009.5mb 51f
11:10am  -   -   -  2 4 mph 1009.4mb 51f
11:00am  -   -   -  2 4 mph 1009.4mb 51f
10:50am 9ft 11s 8s 2 4 mph 1009.3mb 51f
10:40am  -   -   -  2 4 mph 1009.3mb 51f
10:30am  -   -   -  2 4 mph 1009.1mb 51f
10:20am  -   -   -  2 4 mph 1009.1mb 51f
10:10am  -   -   -  2 2 mph 1009mb 51f
10:00am  -   -   -  2 4 mph 1009mb 51f
9:50am 8.5ft 11s 7s  -  4 mph 1009mb 51f
9:40am 8.5ft  -  7s 2 4 mph 1008.9mb 51f
9:30am  -   -   -  2 4 mph 1008.9mb 51f
9:20am  -   -   -  2 4 mph 1008.6mb 51f
9:10am  -   -   -  2 4 mph 1008.5mb 50f
9:00am  -   -   -  2 4 mph 1008.5mb 50f
8:50am 9ft 11s 8s 4 7 mph 1008.4mb 50f
8:40am 9ft  -  8s 4 7 mph 1008.3mb 50f
8:30am  -   -   -  4 7 mph 1008.3mb 50f
8:20am  -   -   -  4 7 mph 1008.3mb 50f
8:10am  -   -   -  4 7 mph 1008.1mb 50f
8:00am  -   -   -  4 7 mph 1008.1mb 50f
7:50am 9ft 11s 8s 4 7 mph 1008.3mb 50f
7:40am 9ft  -  8s 4 7 mph 1008.3mb 50f
7:30am  -   -   -  4 7 mph 1008.1mb 50f
7:20am  -   -   -  2 7 mph 1008mb 50f
7:10am  -   -   -  2 7 mph 1008mb 50f
7:00am  -   -   -  2 7 mph 1007.9mb 50f
6:50am 10ft 11s 8s 2 4 mph 1007.6mb 50f
6:40am 10ft  -  8s 2 7 mph 1007.5mb 50f
6:30am  -   -   -  4 7 mph 1007.4mb 49f
6:20am  -   -   -  4 9 mph 1007.3mb 49f
6:10am  -   -   -  4 7 mph 1007.3mb 49f
6:00am  -   -   -  4 7 mph 1007.3mb 49f
5:50am 9ft 10s 7s 2 4 mph 1007.1mb 49f
5:40am 9ft  -  7s 2 4 mph 1007mb 49f
5:30am  -   -   -  2 7 mph 1007mb 49f
5:20am  -   -   -  2 7 mph 1007mb 49f
5:10am  -   -   -  2 4 mph 1007mb 49f
5:00am  -   -   -  2 4 mph 1006.9mb 49f
4:50am 9ft 10s 8s  -  7 mph 1006.8mb 49f
4:40am  -   -   -  2 7 mph 1006.6mb 50f
4:30am  -   -   -   -  4 mph 1006.6mb 50f
4:20am  -   -   -   -  7 mph 1006.8mb 50f
4:10am  -   -   -  2 4 mph 1006.8mb 50f
4:00am  -   -   -  2 4 mph 1006.8mb 50f
3:50am 9ft 11s 8s 2 7 mph 1006.8mb 50f
3:40am 9ft  -  8s 4 7 mph 1006.9mb 50f
3:30am  -   -   -  4 9 mph 1007mb -
3:20am  -   -   -  7 9 mph 1007mb 50f
3:10am  -   -   -  7 11 mph 1007mb 50f
3:00am  -   -   -  7 13 mph 1007mb 50f
2:50am 8ft 10s 7s 7 11 mph 1007mb 50f
2:40am  -   -   -  4 9 mph 1007mb 50f
2:30am  -   -   -  4 9 mph 1007.1mb 50f
2:20am  -   -   -  4 7 mph 1007.1mb 50f
2:10am  -   -   -  2 4 mph 1007.1mb 50f
2:00am  -   -   -  2 4 mph 1007.1mb 50f
1:50am 8ft 10s 7s  -  4 mph 1007.1mb 50f
1:40am 8ft  -  7s 2 7 mph 1007.1mb 50f
1:30am  -   -   -  4 9 mph 1007.3mb 50f
1:20am  -   -   -  2 7 mph 1007.4mb 50f
1:10am  -   -   -  2 7 mph 1007.5mb 50f
1:00am  -   -   -  7 9 mph 1007.5mb 50f
12:50am 8ft 11s 8s 4 9 mph 1007.6mb 51f
12:40am  -   -   -  4 9 mph 1007.6mb 51f
12:30am  -   -   -  7 9 mph 1007.6mb 51f
12:20am  -   -   -  7 11 mph 1007.6mb 51f
12:10am  -   -   -  7 11 mph 1007.6mb 51f
12:00am  -   -   -  4 9 mph 1007.8mb 51f
Wed 05/24 11:50pm 8ft 9s 7s 4 7 mph 1007.8mb 51f
11:40pm 8ft  -  7s 4 7 mph 1007.9mb 51f
11:30pm  -   -   -  4 7 mph 1007.9mb 51f
11:20pm  -   -   -  2 4 mph 1007.6mb 51f
11:10pm  -   -   -  2 7 mph 1007.8mb 51f
11:00pm  -   -   -  2 7 mph 1007.9mb 51f
10:50pm 9.5ft 11s 8s 4 7 mph 1007.9mb 51f
10:40pm 9.5ft  -  8s 4 7 mph 1007.8mb 51f
10:30pm  -   -   -  4 7 mph 1007.9mb 51f
10:20pm  -   -   -  4 7 mph 1007.6mb 52f
10:10pm  -   -   -  7 9 mph 1007.5mb 52f
10:00pm  -   -   -  7 11 mph 1007.5mb 52f
9:50pm 8.5ft 11s 8s 7 13 mph 1007.5mb 52f
9:40pm 8.5ft  -  8s 7 9 mph 1007.5mb 52f
9:30pm  -   -   -  7 9 mph 1007.5mb 52f
9:20pm  -   -   -  9 16 mph 1007.4mb 52f